Showing default

OPS 9331 (IDSCS 16), 2862

Orbit data source: Space-Track

OPS 9331 (IDSCS 16), 2862 is a payload satellite owned by SAMSO (US) in GEO that was launched on Sat, 01 Jul 1967 UTC via a TITAN IIIC launch vehicle from the Air Force Eastern Test Range (AFETR). Payload-class satellites include a variety of spacecraft equipped with specific instruments for various scientific and technological missions. These include communications satellites like Starlink; space stations such as the ISS; scientific satellites like the Hubble; Earth observation satellites from companies like Planet Labs, Umbra, and HawkEye 360; GPS; miniature CubeSats for education and research; and military/defense satellites.

Not visible in the next 10 days
Identifier
2862, 1967-066A
Orbit
GEO
Country
Flag of USUS
Related business
Manufacturer
Philco-Ford WDL
Mission
Non-operational spacecraft
Bus & Motor
IDCSP, Unknown motor
Mass
45 kg wet, 45 kg dry
Launch date (UTC)
1967-07-01 (59 years ago)
Launch vehicle
TITAN IIIC
Launch site
Air Force Eastern Test Range (AFETR)
Object type
Payload
Rocket body
Debris
Shape & HBR
Unknown
Radar Cross Section
Medium (>0.1 m² and <1 m²)

Expand to show TLE details & history
Last TLE update: 19 hours ago

TLE from 19 hours ago
0 OPS 9331 (IDSCS 16)
1  2862U 67066A   26103.87366524 -.00000050  00000-0  00000+0 0  9991
2  2862   2.7201  96.8330 0063620 243.7032 175.5811  1.09955115136496
Epoch: 2026-04-13T20:58Z
TLE epoch observation values (Epoch: 2026-04-13T20:58:04.676Z)
Latitude
2.32313°
Longitude
-0.43515°
Altitude
33,524.138 km
Speed
3.151 km/s
True Right ascension
10h 24m 34s
True Declination
2° 19' 14"
Sunlit
Object was in daylight at epoch
Visualization orbit readout
Latitude
Unknown
Longitude
Unknown
Altitude
Unknown
Speed
Unknown
Apparent Right ascension
Unknown
Apparent Declination
Unknown
Sunlit
N/A
Visualization observer readout
Local Sidereal Time
22:31:42
Azimuth
Unknown
Elevation
Unknown
Doppler factor
Unknown
Orbital elements
Apogee altitude
33,526.635 km
Perigee altitude
33,022.097 km
Semi-major axis
39,652.503 km
Eccentricity
0.00636
Inclination
2.7201°
RAAN
96.833°
Arg. of periapsis
243.7032°
True anomaly
175.63683°
Mean anomaly
175.5811°
Eccentric anomaly
175.60901°
Mean motion
0.27488 °/min
Orbital period
1,309.68 mins
BSTAR
0
Loading maneuver chart data...
Computing Atmospheric mass density...
Loading historical data...
Loading historical data...
Loading historical data...
Loading historical data...
Loading historical data...
Loading historical data...
Loading historical data...

Documentation

Showing up to 5 results
|